NSS-11

Last updated on Thu Nov 21 2024 00:02:40 GMT+0000 (Coordinated Universal Time)

1 26554U 00059A 24325.25874525 .00000027 00000+0 00000+0 0 9997 2 26554 0.6369 87.8601 0003238 147.8833 93.1782 1.00271647 35532
UTC large
Height (km)
Speed (km/s)
/
Latitude / Longitude
Inclination (degrees)
Orbital Period (minutes)
Azimuth
Elevation
Range (km)
Doppler Factor

Next 0 passes for location: London (51.5072 / 0.1276)

Sorry there are no passes over London.